Regional Weather Roundup
Issued by NWS

Home | Current Version | Previous Version | Graphics & Text | Print | Product List | Glossary On
Versions: 1 2 3 4 5 6 7 8 9 10 11 12 13 14 15 16 17 18 19 20 21 22 23 24 25 26 27 28 29 30 31 32 33 34 35 36 37 38 39 40 41 42 43 44 45 46 47 48 49 50
000
ASUS45 KBOU 290107
RWRCO

WEATHER ROUNDUP FOR COLORADO
NATIONAL WEATHER SERVICE DENVER/BOULDER CO
700 PM MDT WED JUN 28 2017

NOTE: "FAIR" INDICATES FEW OR NO CLOUDS BELOW 12000 FEET WITH NO
SIGNIFICANT WEATHER AND/OR OBSTRUCTIONS TO VISIBILITY.

COZ001>005-013-030-031-290200-
...NORTHWEST COLORADO...

CITY           SKY/WX    TMP DP  RH WIND       PRES   REMARKS
CRAIG          FAIR      82  20  10 W17G29    29.88S
HAYDEN         FAIR      81  28  15 S13G23    29.91F
MEEKER         FAIR      82  16   8 W9G18     29.90R
RABBIT EARS PA MOCLDY    57  30  35 W7        30.25S
STEAMBOAT SPGS FAIR      73  32  22 S3        29.95F
WALDEN         FAIR      70  21  16 W17G33    30.08R
$$

COZ006>008-011-290200-
...WEST CENTRAL VALLEYS...

CITY           SKY/WX    TMP DP  RH WIND       PRES   REMARKS
GRAND JUNCTION FAIR      94  14   5 SW15      29.76S
MONTROSE       FAIR      89  11   5 SW14      29.87S
EAGLE          MOSUNNY   84  19   9 W15       29.93S
RIFLE          FAIR      92   8   4 W17G25    29.81S
DELTA          FAIR      96  10   4 SW16G30   29.80S
NUCLA          FAIR      90   3   4 SW17G23   29.92S
$$

COZ017>023-064>068-290200-
...SOUTHWEST COLORADO...

CITY           SKY/WX    TMP DP  RH WIND       PRES   REMARKS
DURANGO        FAIR      85  -2   3 W21G29    30.00S
CORTEZ         FAIR      89   0   3 SW15G28   29.93F
PAGOSA SPRINGS FAIR      81  -2   4 W12G23    30.09S
TELLURIDE      FAIR      73   8   8 SW10G18   30.21S
WOLF CREEK PAS FAIR      57  14  18 SW15G26   30.46R
$$

COZ009-010-012-014-032>034-037-058>063-290200-
...CENTRAL COLORADO...

CITY           SKY/WX    TMP DP  RH WIND       PRES   REMARKS
ASPEN          FAIR      77  19  11 W6        30.03R
BUENA VISTA    FAIR      78  16   9 W8        30.05R
COPPER MTN     PTSUNNY   59  18  20 W18       30.39R
BERTHOUD PASS  CLOUDY    46  34  61 W10G18    30.42S
COTTONWOOD PAS FAIR      70   1   7 NW5       30.20S
GUNNISON       FAIR      77  23  13 SW13G21   30.04F
KREMMLING      FAIR      81  21  11 NW8       30.01S
LEADVILLE      FAIR      66  13  12 SW9       30.20R
MONARCH PASS   FAIR      61  14  16 W33G44    30.48S
SALIDA         FAIR      83  16   8 W12G21    30.07S
SUNLIGHT       FAIR      63  21  20 SW12G29   30.29S
WILKERSON PASS FAIR      61  12  15 SW9G17    30.34R
$$

COZ069>075-290200-
...SAN LUIS VALLEY/SANGRE DE CRISTO MOUNTAINS...

CITY           SKY/WX    TMP DP  RH WIND       PRES   REMARKS
ALAMOSA        FAIR      80  21  11 SW17G29   30.02S
DEL NORTE      FAIR      78  22  12 SW16G28   30.06R
LA VETA PASS   FAIR      66  19  16 MISG      30.35S
SAGUACHE       FAIR      81  19  10 N13G20    30.04R
$$

COZ035-036-038>040-290200-
...NORTHERN COLORADO FRONT RANGE...

CITY           SKY/WX    TMP DP  RH WIND       PRES   REMARKS
DENVER INTL AP PTSUNNY   83  40  21 NE13      29.84R
DMNS CITY PARK   N/A     83  36  18 N8G16     29.85R
AURORA         PTSUNNY   82  40  22 E6        29.86R
FRONT RANGE AP FAIR      82  36  18 E9        29.86R
ERIE MUNI ARPT FAIR      84  35  17 NE8       29.83R
BOULDER MUN AP FAIR      82  37  20 CALM      29.83S
CENTENNIAL     PTSUNNY   83  35  18 NE5       29.87R
BROOMFIELD     FAIR      82  36  18 N8        29.87S
FORT COLLINS   FAIR      86  43  22 SE9       29.81S
LONGMONT       FAIR      87  36  16 CALM      29.83S
$$

COZ041-046-047-076>085-087-088-290200-
...PIKES PEAK/PALMER DIVIDE AND SOUTHERN FOOTHILLS...

CITY           SKY/WX    TMP DP  RH WIND       PRES   REMARKS
COLO. SPRINGS  FAIR      82  36  19 S12       29.89S
A. F. ACADEMY  NOT AVBL
SCHRIEVER AFB  FAIR      82  34  18 S14       29.90R
CHEYENNE MTN   FAIR      77  33  19 S10       29.90R
ELLICOTT       FAIR     N/A N/A N/A S18       29.87S
FALCON           N/A     78  32  18 S21G28    29.95R
FORT CARSON    FAIR      85  38  18 S13       29.85R
LIMON          FAIR      83  38  20 SE12      29.85R
MONUMENT HILL  FAIR      73  36  25 SE9       29.98R
CANON CITY     SUNNY     90  39  17 MISG      29.80S
WALSENBURG     FAIR      90  23   9 SW15G24   29.87S
TRINIDAD       FAIR      89  38  16 CALM      29.84S
$$

COZ042>045-048>051-090-091-290200-
...NORTHEAST COLORADO...

CITY           SKY/WX    TMP DP  RH WIND       PRES   REMARKS
GREELEY ARPT   FAIR      82  45  27 SE12      29.80F
AKRON          PTSUNNY   80  41  24 NE5       29.84R
BURLINGTON     FAIR      85  50  29 SE12      29.80F
WRAY           FAIR      81  46  30 E6        29.79R
YUMA           LGT RAIN  81  41  24 SW8G28    29.82R
STERLING       FAIR      84  46  26 S8        29.76S
HOLYOKE        NOT AVBL
FORT MORGAN    FAIR      79  44  28 S8        29.81R
$$

COZ086-089-092>099-290200-
...SOUTHEAST COLORADO...

CITY           SKY/WX    TMP DP  RH WIND       PRES   REMARKS
PUEBLO         FAIR      92  40  16 SE16G23   29.74S
LA JUNTA       FAIR      92  44  19 SE22      29.73F
LAMAR          FAIR      92  47  21 SE22      29.70F
SPRINGFIELD      N/A     87  52  29 SE13      29.78F
$$



USA.gov is the U.S. government's official web portal to all federal, state and local government web resources and services.